,,,PA_Meas_PMT16A,,PR_Meas_QMR101_102,,RH_Meas_QMH101,,SR_Meas_QMS101,,TA_Meas_QMH101,,GenWind,,GenWind,
date,time,status,PA,status,PR,status,RH,status,SR,status,TA,status,DirAvg,status,SpdAvg,
2010-05-15, 00:00:04,VALID,1006.28,VALID,0,VALID,102.048,VALID,0,VALID,25.9161,VALID,288,VALID,0,
2010-05-15, 00:01:04,VALID,1006.27,VALID,0,VALID,102.055,VALID,0,VALID,25.9161,VALID,288,VALID,0,
2010-05-15, 00:02:04,VALID,1006.25,VALID,0,VALID,102.063,VALID,0,VALID,25.8946,VALID,288,VALID,0,
2010-05-15, 00:03:04,VALID,1006.24,VALID,0,VALID,102.048,VALID,0,VALID,25.9141,VALID,288,VALID,0,
2010-05-15, 00:04:04,VALID,1006.24,VALID,0,VALID,102.033,VALID,0,VALID,25.9161,VALID,288,VALID,0,
2010-05-15, 00:05:04,VALID,1006.25,VALID,0,VALID,102.025,VALID,0,VALID,25.8946,VALID,288,VALID,0,
2010-05-15, 00:06:04,VALID,1006.23,VALID,0,VALID,102.017,VALID,0,VALID,25.9356,VALID,288,VALID,0,
2010-05-15, 00:07:04,VALID,1006.25,VALID,0,VALID,102.017,VALID,0,VALID,25.9161,VALID,288,VALID,0,
2010-05-15, 00:08:04,VALID,1006.26,VALID,0,VALID,102.01,VALID,0,VALID,25.9161,VALID,288,VALID,0,
2010-05-15, 00:09:04,VALID,1006.27,VALID,0,VALID,101.987,VALID,0,VALID,25.9161,VALID,288,VALID,0,
2010-05-15, 00:10:04,VALID,1006.25,VALID,0,VALID,101.979,VALID,0,VALID,25.8751,VALID,288,VALID,0,
2010-05-15, 00:11:04,VALID,1006.26,VALID,0,VALID,101.987,VALID,0,VALID,25.8966,VALID,288,VALID,0.0585938,
2010-05-15, 00:12:04,VALID,1006.26,VALID,0,VALID,101.979,VALID,0,VALID,25.8556,VALID,288,VALID,0,
2010-05-15, 00:13:04,VALID,1006.26,VALID,0,VALID,101.972,VALID,0,VALID,25.8966,VALID,288,VALID,0,
2010-05-15, 00:14:04,VALID,1006.24,VALID,0,VALID,102.002,VALID,0,VALID,25.8966,VALID,288,VALID,0,
2010-05-15, 00:15:04,VALID,1006.24,VALID,0,VALID,101.964,VALID,0,VALID,25.8966,VALID,288,VALID,0,
2010-05-15, 00:16:04,VALID,1006.21,VALID,0,VALID,101.994,VALID,0,VALID,25.8966,VALID,288,VALID,0,
2010-05-15, 00:17:04,VALID,1006.24,VALID,0,VALID,102.01,VALID,0.105969,VALID,25.8946,VALID,288,VALID,0,
2010-05-15, 00:18:04,VALID,1006.2,VALID,0,VALID,102.002,VALID,0.105969,VALID,25.8751,VALID,288,VALID,0,
2010-05-15, 00:19:04,VALID,1006.19,VALID,0,VALID,102.025,VALID,0.105969,VALID,25.8751,VALID,288,VALID,0,
2010-05-15, 00:20:04,VALID,1006.21,VALID,0,VALID,102.025,VALID,0.105969,VALID,25.8751,VALID,288,VALID,0,
2010-05-15, 00:21:04,VALID,1006.23,VALID,0,VALID,102.025,VALID,0.105969,VALID,25.8751,VALID,288,VALID,0,
2010-05-15, 00:22:04,VALID,1006.23,VALID,0,VALID,102.04,VALID,0.105969,VALID,25.8537,VALID,288,VALID,0,
2010-05-15, 00:23:04,VALID,1006.23,VALID,0,VALID,102.048,VALID,0.105969,VALID,25.8946,VALID,288,VALID,0,
2010-05-15, 00:24:04,VALID,1006.28,VALID,0,VALID,102.063,VALID,0.105969,VALID,25.9141,VALID,288,VALID,0,
2010-05-15, 00:25:04,VALID,1006.28,VALID,0,VALID,102.078,VALID,0.105969,VALID,25.8927,VALID,288,VALID,0,
2010-05-15, 00:26:04,VALID,1006.3,VALID,0,VALID,102.055,VALID,0.105969,VALID,25.9141,VALID,288,VALID,0,
2010-05-15, 00:27:04,VALID,1006.28,VALID,0,VALID,102.017,VALID,0.105969,VALID,25.9141,VALID,288,VALID,0,
2010-05-15, 00:28:04,VALID,1006.26,VALID,0,VALID,101.994,VALID,0.105969,VALID,25.9336,VALID,288,VALID,0,
2010-05-15, 00:29:04,VALID,1006.27,VALID,0,VALID,101.994,VALID,0.105969,VALID,25.9336,VALID,288,VALID,0,
2010-05-15, 00:30:04,VALID,1006.31,VALID,0,VALID,101.987,VALID,0.105969,VALID,25.9317,VALID,288,VALID,0,
2010-05-15, 00:31:04,VALID,1006.26,VALID,0,VALID,101.979,VALID,0.105969,VALID,25.9531,VALID,288,VALID,0,
2010-05-15, 00:32:04,VALID,1006.28,VALID,0,VALID,101.994,VALID,0,VALID,25.9356,VALID,288,VALID,0,
2010-05-15, 00:33:04,VALID,1006.29,VALID,0,VALID,101.949,VALID,0,VALID,25.9356,VALID,288,VALID,0,
2010-05-15, 00:34:04,VALID,1006.26,VALID,0,VALID,101.941,VALID,0,VALID,25.9356,VALID,288,VALID,0,
2010-05-15, 00:35:04,VALID,1006.28,VALID,0,VALID,101.972,VALID,0,VALID,25.8946,VALID,288,VALID,0,
2010-05-15, 00:36:04,VALID,1006.28,VALID,0,VALID,101.964,VALID,0,VALID,25.9161,VALID,288,VALID,0,
2010-05-15, 00:37:04,VALID,1006.29,VALID,0,VALID,101.972,VALID,0,VALID,25.8966,VALID,288,VALID,0,
2010-05-15, 00:38:04,VALID,1006.25,VALID,0,VALID,101.956,VALID,0,VALID,25.8966,VALID,288,VALID,0,
2010-05-15, 00:39:04,VALID,1006.28,VALID,0,VALID,101.987,VALID,0,VALID,25.8771,VALID,288,VALID,0,
2010-05-15, 00:40:04,VALID,1006.27,VALID,0,VALID,101.949,VALID,0,VALID,25.8576,VALID,288,VALID,0,
2010-05-15, 00:41:04,VALID,1006.29,VALID,0,VALID,101.949,VALID,0,VALID,25.8576,VALID,288,VALID,0,
2010-05-15, 00:42:04,VALID,1006.28,VALID,0,VALID,101.956,VALID,0,VALID,25.8186,VALID,288,VALID,0,
2010-05-15, 00:43:04,VALID,1006.29,VALID,0,VALID,101.949,VALID,0,VALID,25.8381,VALID,288,VALID,0,
2010-05-15, 00:44:04,VALID,1006.27,VALID,0,VALID,101.987,VALID,0,VALID,25.8166,VALID,288,VALID,0,
2010-05-15, 00:45:04,VALID,1006.28,VALID,0,VALID,102.017,VALID,0,VALID,25.8381,VALID,288,VALID,0,
2010-05-15, 00:46:04,VALID,1006.28,VALID,0,VALID,102.04,VALID,0,VALID,25.8381,VALID,288,VALID,0,
2010-05-15, 00:47:04,VALID,1006.29,VALID,0,VALID,102.071,VALID,0.105969,VALID,25.8361,VALID,288,VALID,0,
2010-05-15, 00:48:04,VALID,1006.25,VALID,0,VALID,102.055,VALID,0.105969,VALID,25.8166,VALID,288,VALID,0,
2010-05-15, 00:49:04,VALID,1006.27,VALID,0,VALID,102.063,VALID,0.105969,VALID,25.8166,VALID,288,VALID,0,
2010-05-15, 00:50:04,VALID,1006.28,VALID,0,VALID,102.094,VALID,0.105969,VALID,25.7971,VALID,288,VALID,0,
2010-05-15, 00:51:04,VALID,1006.26,VALID,0,VALID,102.116,VALID,0.105969,VALID,25.8166,VALID,288,VALID,0,
2010-05-15, 00:52:04,VALID,1006.24,VALID,0,VALID,102.109,VALID,0.211938,VALID,25.8166,VALID,288,VALID,0,
2010-05-15, 00:53:04,VALID,1006.24,VALID,0,VALID,102.116,VALID,0.105969,VALID,25.8166,VALID,288,VALID,0,
2010-05-15, 00:54:04,VALID,1006.25,VALID,0,VALID,102.116,VALID,0.105969,VALID,25.7971,VALID,288,VALID,0.0148437,
2010-05-15, 00:55:04,VALID,1006.22,VALID,0,VALID,102.124,VALID,0.105969,VALID,25.8166,VALID,288,VALID,0,
2010-05-15, 00:56:04,VALID,1006.21,VALID,0,VALID,102.116,VALID,0.105969,VALID,25.8166,VALID,50,VALID,0.364844,
2010-05-15, 00:57:04,VALID,1006.2,VALID,0,VALID,102.116,VALID,0.105969,VALID,25.8147,VALID,58,VALID,0.116016,
2010-05-15, 00:58:04,VALID,1006.19,VALID,0,VALID,102.109,VALID,0.105969,VALID,25.8147,VALID,58,VALID,0,
2010-05-15, 00:59:04,VALID,1006.19,VALID,0,VALID,102.109,VALID,0.105969,VALID,25.8556,VALID,58,VALID,0,
2010-05-15, 01:00:04,VALID,1006.19,VALID,0,VALID,102.094,VALID,0.105969,VALID,25.8147,VALID,58,VALID,0,
2010-05-15, 01:01:04,VALID,1006.14,VALID,0,VALID,102.071,VALID,0.105969,VALID,25.8361,VALID,58,VALID,0,
2010-05-15, 01:02:04,VALID,1006.14,VALID,0,VALID,102.048,VALID,0,VALID,25.8381,VALID,58,VALID,0,
2010-05-15, 01:03:04,VALID,1006.12,VALID,0,VALID,102.048,VALID,0,VALID,25.8186,VALID,58,VALID,0.1625,
2010-05-15, 01:04:04,VALID,1006.05,VALID,0,VALID,102.033,VALID,0,VALID,25.8401,VALID,58,VALID,0,
2010-05-15, 01:05:04,VALID,1006.04,VALID,0,VALID,102.025,VALID,0,VALID,25.8186,VALID,58,VALID,0,
2010-05-15, 01:06:04,VALID,1006.04,VALID,0,VALID,102.01,VALID,0,VALID,25.8381,VALID,58,VALID,0,
2010-05-15, 01:07:04,VALID,1006.02,VALID,0,VALID,102.017,VALID,0,VALID,25.7991,VALID,58,VALID,0,
2010-05-15, 01:08:04,VALID,1005.98,VALID,0,VALID,102.017,VALID,0,VALID,25.8186,VALID,58,VALID,0,
2010-05-15, 01:09:04,VALID,1005.98,VALID,0,VALID,102.04,VALID,0,VALID,25.8186,VALID,58,VALID,0,
2010-05-15, 01:10:04,VALID,1005.97,VALID,0,VALID,102.071,VALID,0,VALID,25.7991,VALID,58,VALID,0,
2010-05-15, 01:11:04,VALID,1005.98,VALID,0,VALID,102.078,VALID,0,VALID,25.7776,VALID,58,VALID,0,
2010-05-15, 01:12:04,VALID,1005.96,VALID,0,VALID,102.078,VALID,0,VALID,25.7991,VALID,58,VALID,0,
2010-05-15, 01:13:04,VALID,1005.98,VALID,0,VALID,102.086,VALID,0,VALID,25.7796,VALID,58,VALID,0,
2010-05-15, 01:14:04,VALID,1005.96,VALID,0,VALID,102.086,VALID,0,VALID,25.7581,VALID,58,VALID,0,
2010-05-15, 01:15:04,VALID,1005.98,VALID,0,VALID,102.078,VALID,0,VALID,25.7601,VALID,58,VALID,0,
2010-05-15, 01:16:04,VALID,1005.97,VALID,0,VALID,102.078,VALID,0.105969,VALID,25.7387,VALID,58,VALID,0,
2010-05-15, 01:17:04,VALID,1005.95,VALID,0,VALID,102.109,VALID,0,VALID,25.7601,VALID,58,VALID,0,
2010-05-15, 01:18:04,VALID,1005.97,VALID,0,VALID,102.116,VALID,0,VALID,25.7406,VALID,58,VALID,0,
2010-05-15, 01:19:04,VALID,1005.95,VALID,0,VALID,102.124,VALID,0,VALID,25.7406,VALID,58,VALID,0,
2010-05-15, 01:20:04,VALID,1005.93,VALID,0,VALID,102.109,VALID,0,VALID,25.7211,VALID,58,VALID,0,
2010-05-15, 01:21:04,VALID,1005.95,VALID,0,VALID,102.116,VALID,0,VALID,25.7406,VALID,58,VALID,0,
2010-05-15, 01:22:04,VALID,1005.95,VALID,0,VALID,102.116,VALID,0,VALID,25.7211,VALID,58,VALID,0,
2010-05-15, 01:23:04,VALID,1005.96,VALID,0,VALID,102.132,VALID,0,VALID,25.7211,VALID,58,VALID,0,
2010-05-15, 01:24:04,VALID,1005.95,VALID,0,VALID,102.139,VALID,0,VALID,25.7016,VALID,58,VALID,0,
2010-05-15, 01:25:04,VALID,1005.95,VALID,0,VALID,102.132,VALID,0,VALID,25.6821,VALID,58,VALID,0,
2010-05-15, 01:26:04,VALID,1005.94,VALID,0,VALID,102.162,VALID,0,VALID,25.6821,VALID,58,VALID,0,
2010-05-15, 01:27:04,VALID,1005.96,VALID,0,VALID,102.162,VALID,0,VALID,25.6626,VALID,58,VALID,0,
2010-05-15, 01:28:04,VALID,1005.96,VALID,0,VALID,102.17,VALID,0,VALID,25.6626,VALID,58,VALID,0,
2010-05-15, 01:29:04,VALID,1005.97,VALID,0,VALID,102.185,VALID,0,VALID,25.6646,VALID,58,VALID,0,
2010-05-15, 01:30:04,VALID,1005.97,VALID,0,VALID,102.177,VALID,0,VALID,25.6646,VALID,58,VALID,0,
2010-05-15, 01:31:04,VALID,1005.99,VALID,0,VALID,102.193,VALID,0,VALID,25.6431,VALID,58,VALID,0,
2010-05-15, 01:32:04,VALID,1005.98,VALID,0,VALID,102.177,VALID,0,VALID,25.6236,VALID,58,VALID,0,
2010-05-15, 01:33:04,VALID,1005.96,VALID,0,VALID,102.177,VALID,0,VALID,25.6256,VALID,58,VALID,0,
2010-05-15, 01:34:04,VALID,1005.98,VALID,0,VALID,102.2,VALID,0,VALID,25.6041,VALID,58,VALID,0,
2010-05-15, 01:35:04,VALID,1005.97,VALID,0,VALID,102.216,VALID,0,VALID,25.6041,VALID,58,VALID,0,
2010-05-15, 01:36:04,VALID,1005.94,VALID,0,VALID,102.238,VALID,0,VALID,25.6041,VALID,58,VALID,0,
2010-05-15, 01:37:04,VALID,1005.94,VALID,0,VALID,102.223,VALID,0,VALID,25.5827,VALID,58,VALID,0,
2010-05-15, 01:38:04,VALID,1005.91,VALID,0,VALID,102.246,VALID,0,VALID,25.6041,VALID,58,VALID,0,
2010-05-15, 01:39:04,VALID,1005.92,VALID,0,VALID,102.246,VALID,0,VALID,25.5846,VALID,58,VALID,0,
2010-05-15, 01:40:04,VALID,1005.91,VALID,0,VALID,102.238,VALID,0,VALID,25.5846,VALID,58,VALID,0,
2010-05-15, 01:41:04,VALID,1005.88,VALID,0,VALID,102.238,VALID,0,VALID,25.5651,VALID,58,VALID,0,
2010-05-15, 01:42:04,VALID,1005.87,VALID,0,VALID,102.246,VALID,0,VALID,25.5846,VALID,58,VALID,0,
2010-05-15, 01:43:04,VALID,1005.88,VALID,0,VALID,102.269,VALID,0,VALID,25.5651,VALID,58,VALID,0,
2010-05-15, 01:44:04,VALID,1005.88,VALID,0,VALID,102.269,VALID,0,VALID,25.5651,VALID,58,VALID,0,
2010-05-15, 01:45:04,VALID,1005.89,VALID,0,VALID,102.277,VALID,0,VALID,25.5651,VALID,58,VALID,0,
2010-05-15, 01:46:04,VALID,1005.88,VALID,0,VALID,102.292,VALID,0,VALID,25.5651,VALID,58,VALID,0,
2010-05-15, 01:47:04,VALID,1005.85,VALID,0,VALID,102.292,VALID,0,VALID,25.5651,VALID,58,VALID,0,
2010-05-15, 01:48:04,VALID,1005.86,VALID,0,VALID,102.292,VALID,0,VALID,25.5651,VALID,58,VALID,0,
2010-05-15, 01:49:04,VALID,1005.82,VALID,0,VALID,102.307,VALID,0,VALID,25.5651,VALID,58,VALID,0,
2010-05-15, 01:50:04,VALID,1005.81,VALID,0,VALID,102.299,VALID,0,VALID,25.5846,VALID,58,VALID,0,
2010-05-15, 01:51:04,VALID,1005.81,VALID,0,VALID,102.292,VALID,0,VALID,25.5846,VALID,58,VALID,0,
2010-05-15, 01:52:04,VALID,1005.77,VALID,0,VALID,102.284,VALID,0,VALID,25.5846,VALID,58,VALID,0,
2010-05-15, 01:53:04,VALID,1005.79,VALID,0,VALID,102.299,VALID,0.105969,VALID,25.5632,VALID,58,VALID,0,
2010-05-15, 01:54:04,VALID,1005.8,VALID,0,VALID,102.307,VALID,0,VALID,25.5651,VALID,58,VALID,0,
2010-05-15, 01:55:04,VALID,1005.75,VALID,0,VALID,102.299,VALID,0,VALID,25.5651,VALID,58,VALID,0,
2010-05-15, 01:56:04,VALID,1005.74,VALID,0,VALID,102.269,VALID,0,VALID,25.5456,VALID,58,VALID,0,
2010-05-15, 01:57:04,VALID,1005.74,VALID,0,VALID,102.292,VALID,0,VALID,25.5261,VALID,58,VALID,0,
2010-05-15, 01:58:04,VALID,1005.76,VALID,0,VALID,102.292,VALID,0,VALID,25.5066,VALID,58,VALID,0,
2010-05-15, 01:59:04,VALID,1005.75,VALID,0,VALID,102.292,VALID,0,VALID,25.5066,VALID,58,VALID,0,
2010-05-15, 02:00:04,VALID,1005.73,VALID,0,VALID,102.292,VALID,0,VALID,25.4871,VALID,58,VALID,0,
2010-05-15, 02:01:04,VALID,1005.72,VALID,0,VALID,102.307,VALID,0,VALID,25.4871,VALID,58,VALID,0,
2010-05-15, 02:02:04,VALID,1005.67,VALID,0,VALID,102.292,VALID,0,VALID,25.4871,VALID,58,VALID,0,
2010-05-15, 02:03:04,VALID,1005.66,VALID,0,VALID,102.299,VALID,0,VALID,25.4677,VALID,58,VALID,0,
2010-05-15, 02:04:04,VALID,1005.65,VALID,0,VALID,102.307,VALID,0,VALID,25.4677,VALID,58,VALID,0,
2010-05-15, 02:05:04,VALID,1005.61,VALID,0,VALID,102.307,VALID,0,VALID,25.4482,VALID,58,VALID,0,
2010-05-15, 02:06:04,VALID,1005.61,VALID,0,VALID,102.307,VALID,0,VALID,25.4287,VALID,58,VALID,0,
2010-05-15, 02:07:04,VALID,1005.62,VALID,0,VALID,102.33,VALID,0,VALID,25.4287,VALID,58,VALID,0,
2010-05-15, 02:08:04,VALID,1005.6,VALID,0,VALID,102.338,VALID,0,VALID,25.4287,VALID,58,VALID,0,
2010-05-15, 02:09:04,VALID,1005.61,VALID,0,VALID,102.338,VALID,0,VALID,25.4092,VALID,58,VALID,0,
2010-05-15, 02:10:04,VALID,1005.6,VALID,0,VALID,102.33,VALID,0,VALID,25.4092,VALID,58,VALID,0,
2010-05-15, 02:11:04,VALID,1005.58,VALID,0,VALID,102.36,VALID,0,VALID,25.4092,VALID,58,VALID,0,
2010-05-15, 02:12:04,VALID,1005.58,VALID,0,VALID,102.353,VALID,0,VALID,25.3897,VALID,58,VALID,0,
2010-05-15, 02:13:04,VALID,1005.55,VALID,0,VALID,102.353,VALID,0,VALID,25.3897,VALID,58,VALID,0,
2010-05-15, 02:14:04,VALID,1005.5,VALID,0,VALID,102.353,VALID,0,VALID,25.3897,VALID,58,VALID,0,
2010-05-15, 02:15:04,VALID,1005.49,VALID,0,VALID,102.36,VALID,0,VALID,25.3897,VALID,58,VALID,0,
2010-05-15, 02:16:04,VALID,1005.46,VALID,0,VALID,102.36,VALID,0,VALID,25.3897,VALID,58,VALID,0,
2010-05-15, 02:17:04,VALID,1005.45,VALID,0,VALID,102.36,VALID,0,VALID,25.3897,VALID,58,VALID,0,
2010-05-15, 02:18:04,VALID,1005.42,VALID,0,VALID,102.36,VALID,0,VALID,25.4092,VALID,59,VALID,0.485938,
2010-05-15, 02:19:04,VALID,1005.43,VALID,0,VALID,102.345,VALID,0,VALID,25.4287,VALID,59,VALID,0.246875,
2010-05-15, 02:20:04,VALID,1005.41,VALID,0,VALID,102.36,VALID,0,VALID,25.4677,VALID,59,VALID,0,
2010-05-15, 02:21:04,VALID,1005.39,VALID,0,VALID,102.383,VALID,0,VALID,25.4677,VALID,59,VALID,0.271875,
2010-05-15, 02:22:04,VALID,1005.38,VALID,0,VALID,102.376,VALID,0,VALID,25.4871,VALID,59,VALID,0.471094,
2010-05-15, 02:23:04,VALID,1005.33,VALID,0,VALID,102.383,VALID,0,VALID,25.5066,VALID,59,VALID,0.385156,
2010-05-15, 02:24:04,VALID,1005.35,VALID,0,VALID,102.368,VALID,0,VALID,25.5261,VALID,60,VALID,0.373828,
2010-05-15, 02:25:04,VALID,1005.34,VALID,0,VALID,102.368,VALID,0,VALID,25.5456,VALID,60,VALID,0.182422,
2010-05-15, 02:26:04,VALID,1005.34,VALID,0,VALID,102.353,VALID,0,VALID,25.5456,VALID,60,VALID,0,
2010-05-15, 02:27:04,VALID,1005.33,VALID,0,VALID,102.353,VALID,0,VALID,25.5242,VALID,60,VALID,0,
2010-05-15, 02:28:04,VALID,1005.34,VALID,0,VALID,102.307,VALID,0,VALID,25.5456,VALID,60,VALID,0.123828,
2010-05-15, 02:29:04,VALID,1005.32,VALID,0,VALID,102.277,VALID,0,VALID,25.5456,VALID,60,VALID,0,
2010-05-15, 02:30:04,VALID,1005.32,VALID,0,VALID,102.254,VALID,0,VALID,25.5242,VALID,60,VALID,0.146484,
2010-05-15, 02:31:04,VALID,1005.32,VALID,0,VALID,102.231,VALID,0,VALID,25.5261,VALID,60,VALID,0,
2010-05-15, 02:32:04,VALID,1005.33,VALID,0,VALID,102.216,VALID,0,VALID,25.5261,VALID,60,VALID,0,
2010-05-15, 02:33:04,VALID,1005.34,VALID,0,VALID,102.2,VALID,0,VALID,25.5261,VALID,60,VALID,0,
2010-05-15, 02:34:04,VALID,1005.32,VALID,0,VALID,102.2,VALID,0,VALID,25.5066,VALID,60,VALID,0,
2010-05-15, 02:35:04,VALID,1005.34,VALID,0,VALID,102.177,VALID,0,VALID,25.4871,VALID,65,VALID,0,
2010-05-15, 02:36:04,VALID,1005.35,VALID,0,VALID,102.193,VALID,0,VALID,25.4871,VALID,65,VALID,0,
2010-05-15, 02:37:04,VALID,1005.37,VALID,0,VALID,102.177,VALID,0,VALID,25.4677,VALID,65,VALID,0,
2010-05-15, 02:38:04,VALID,1005.38,VALID,0,VALID,102.155,VALID,0,VALID,25.4677,VALID,65,VALID,0,
2010-05-15, 02:39:04,VALID,1005.33,VALID,0,VALID,102.162,VALID,0,VALID,25.4482,VALID,65,VALID,0,
2010-05-15, 02:40:04,VALID,1005.32,VALID,0,VALID,102.139,VALID,0,VALID,25.4482,VALID,65,VALID,0,
2010-05-15, 02:41:04,VALID,1005.33,VALID,0,VALID,102.162,VALID,0,VALID,25.4482,VALID,65,VALID,0,
2010-05-15, 02:42:04,VALID,1005.3,VALID,0,VALID,102.162,VALID,0,VALID,25.4287,VALID,65,VALID,0,
2010-05-15, 02:43:04,VALID,1005.3,VALID,0,VALID,102.17,VALID,0,VALID,25.4092,VALID,65,VALID,0,
2010-05-15, 02:44:04,VALID,1005.32,VALID,0,VALID,102.177,VALID,0,VALID,25.3702,VALID,65,VALID,0,
2010-05-15, 02:45:04,VALID,1005.33,VALID,0,VALID,102.223,VALID,0,VALID,25.3897,VALID,65,VALID,0,
2010-05-15, 02:46:04,VALID,1005.34,VALID,0,VALID,102.216,VALID,0,VALID,25.3702,VALID,65,VALID,0,
2010-05-15, 02:47:04,VALID,1005.34,VALID,0,VALID,102.231,VALID,0,VALID,25.3488,VALID,65,VALID,0,
2010-05-15, 02:48:04,VALID,1005.34,VALID,0,VALID,102.231,VALID,0,VALID,25.3507,VALID,65,VALID,0,
2010-05-15, 02:49:04,VALID,1005.36,VALID,0,VALID,102.246,VALID,0,VALID,25.3507,VALID,65,VALID,0,
2010-05-15, 02:50:04,VALID,1005.34,VALID,0,VALID,102.261,VALID,0,VALID,25.3098,VALID,65,VALID,0,
2010-05-15, 02:51:04,VALID,1005.35,VALID,0,VALID,102.284,VALID,0,VALID,25.3098,VALID,65,VALID,0.0210938,
2010-05-15, 02:52:04,VALID,1005.36,VALID,0,VALID,102.299,VALID,0,VALID,25.3507,VALID,65,VALID,0.216406,
2010-05-15, 02:53:04,VALID,1005.35,VALID,0,VALID,102.307,VALID,0,VALID,25.3507,VALID,65,VALID,0.183984,
2010-05-15, 02:54:04,VALID,1005.33,VALID,0,VALID,102.299,VALID,0,VALID,25.3312,VALID,65,VALID,0.314844,
2010-05-15, 02:55:04,VALID,1005.3,VALID,0,VALID,102.307,VALID,0,VALID,25.3312,VALID,65,VALID,0.0703125,
2010-05-15, 02:56:04,VALID,1005.28,VALID,0,VALID,102.292,VALID,0,VALID,25.3117,VALID,65,VALID,0,
2010-05-15, 02:57:04,VALID,1005.29,VALID,0,VALID,102.277,VALID,0,VALID,25.3117,VALID,65,VALID,0,
2010-05-15, 02:58:04,VALID,1005.27,VALID,0,VALID,102.277,VALID,0,VALID,25.2922,VALID,65,VALID,0,
2010-05-15, 02:59:04,VALID,1005.31,VALID,0,VALID,102.292,VALID,0,VALID,25.2727,VALID,65,VALID,0,
2010-05-15, 03:00:04,VALID,1005.26,VALID,0,VALID,102.315,VALID,0,VALID,25.2318,VALID,65,VALID,0,
2010-05-15, 03:01:04,VALID,1005.29,VALID,0,VALID,102.284,VALID,0,VALID,25.2318,VALID,65,VALID,0,
2010-05-15, 03:02:04,VALID,1005.35,VALID,0,VALID,102.307,VALID,0,VALID,25.2318,VALID,65,VALID,0,
2010-05-15, 03:03:04,VALID,1005.37,VALID,0,VALID,102.338,VALID,0.105969,VALID,25.2337,VALID,56,VALID,0,
2010-05-15, 03:04:04,VALID,1005.41,VALID,0,VALID,102.322,VALID,0.105969,VALID,25.2513,VALID,306,VALID,0.851563,
2010-05-15, 03:05:04,VALID,1005.47,VALID,0,VALID,102.338,VALID,0.105969,VALID,25.2708,VALID,301,VALID,0.755859,
2010-05-15, 03:06:04,VALID,1005.49,VALID,0,VALID,102.345,VALID,0.105969,VALID,25.3098,VALID,297,VALID,0.0785156,
2010-05-15, 03:07:04,VALID,1005.57,VALID,0,VALID,102.33,VALID,0.105969,VALID,25.3507,VALID,287,VALID,1.24766,
2010-05-15, 03:08:04,VALID,1005.55,VALID,0,VALID,102.338,VALID,0,VALID,25.3877,VALID,308,VALID,1.05039,
2010-05-15, 03:09:04,VALID,1005.55,VALID,0,VALID,102.33,VALID,0,VALID,25.4482,VALID,15,VALID,0.265625,
2010-05-15, 03:10:04,VALID,1005.54,VALID,0,VALID,102.33,VALID,0.105969,VALID,25.4871,VALID,339,VALID,0.632422,
2010-05-15, 03:11:04,VALID,1005.52,VALID,0,VALID,102.299,VALID,0,VALID,25.4871,VALID,3,VALID,1.14531,
2010-05-15, 03:12:04,VALID,1005.51,VALID,0,VALID,102.246,VALID,0.105969,VALID,25.4871,VALID,318,VALID,1.54336,
2010-05-15, 03:13:04,VALID,1005.48,VALID,0,VALID,101.865,VALID,0.105969,VALID,25.4871,VALID,311,VALID,2.08437,
2010-05-15, 03:14:04,VALID,1005.46,VALID,0,VALID,99.9508,VALID,0.105969,VALID,25.4871,VALID,319,VALID,1.16758,
2010-05-15, 03:15:04,VALID,1005.46,VALID,0,VALID,96.9843,VALID,0,VALID,25.5651,VALID,286,VALID,0.585938,
2010-05-15, 03:16:04,VALID,1005.46,VALID,0,VALID,89.9305,VALID,0.105969,VALID,25.6431,VALID,296,VALID,1.15078,
2010-05-15, 03:17:04,VALID,1005.47,VALID,0,VALID,88.3444,VALID,0.105969,VALID,25.6626,VALID,290,VALID,1.5582,
2010-05-15, 03:18:04,VALID,1005.44,VALID,0,VALID,88.2757,VALID,0.105969,VALID,25.6821,VALID,294,VALID,0.707031,
2010-05-15, 03:19:04,VALID,1005.42,VALID,0,VALID,85.683,VALID,0,VALID,25.6821,VALID,318,VALID,2.04063,
2010-05-15, 03:20:04,VALID,1005.36,VALID,0,VALID,84.6077,VALID,0,VALID,25.6821,VALID,340,VALID,0.975,
2010-05-15, 03:21:04,VALID,1005.35,VALID,0,VALID,84.2493,VALID,0,VALID,25.6626,VALID,301,VALID,1.51953,
2010-05-15, 03:22:04,VALID,1005.31,VALID,0,VALID,84.1502,VALID,0.105969,VALID,25.6431,VALID,307,VALID,1.62109,
2010-05-15, 03:23:04,VALID,1005.29,VALID,0,VALID,84.5238,VALID,0.105969,VALID,25.6041,VALID,300,VALID,0.680469,
2010-05-15, 03:24:04,VALID,1005.28,VALID,0,VALID,85.1797,VALID,0,VALID,25.5651,VALID,291,VALID,0.744141,
2010-05-15, 03:25:04,VALID,1005.32,VALID,0,VALID,86.4455,VALID,0,VALID,25.5242,VALID,318,VALID,0.651563,
2010-05-15, 03:26:04,VALID,1005.29,VALID,0,VALID,88.0393,VALID,0.105969,VALID,25.5261,VALID,328,VALID,0.589453,
2010-05-15, 03:27:04,VALID,1005.24,VALID,0,VALID,88.291,VALID,0,VALID,25.4677,VALID,305,VALID,0.729688,
2010-05-15, 03:28:04,VALID,1005.24,VALID,0,VALID,90.777,VALID,0.105969,VALID,25.4092,VALID,107,VALID,0.216797,
2010-05-15, 03:29:04,VALID,1005.25,VALID,0,VALID,91.265,VALID,0.105969,VALID,25.3507,VALID,302,VALID,0.608594,
2010-05-15, 03:30:04,VALID,1005.29,VALID,0,VALID,92.4775,VALID,0,VALID,25.3312,VALID,300,VALID,0.307813,
2010-05-15, 03:31:04,VALID,1005.34,VALID,0,VALID,94.0027,VALID,0,VALID,25.2922,VALID,347,VALID,0.589844,
2010-05-15, 03:32:04,VALID,1005.36,VALID,0,VALID,94.1704,VALID,0,VALID,25.2513,VALID,311,VALID,0.838281,
2010-05-15, 03:33:04,VALID,1005.33,VALID,0,VALID,94.5441,VALID,0.105969,VALID,25.2123,VALID,339,VALID,1.61719,
2010-05-15, 03:34:04,VALID,1005.35,VALID,0,VALID,95.1008,VALID,0,VALID,25.1928,VALID,339,VALID,1.08125,
2010-05-15, 03:35:04,VALID,1005.35,VALID,0,VALID,95.6193,VALID,0,VALID,25.1733,VALID,25,VALID,0.385156,
2010-05-15, 03:36:04,VALID,1005.33,VALID,0,VALID,95.8481,VALID,0,VALID,25.1557,VALID,354,VALID,0.382813,
2010-05-15, 03:37:04,VALID,1005.3,VALID,0,VALID,96.0311,VALID,0,VALID,25.1167,VALID,311,VALID,0.854688,
2010-05-15, 03:38:04,VALID,1005.31,VALID,0,VALID,96.2751,VALID,0,VALID,25.0973,VALID,353,VALID,0.996875,
2010-05-15, 03:39:04,VALID,1005.32,VALID,0,VALID,96.2904,VALID,0,VALID,25.0778,VALID,329,VALID,0.644531,
2010-05-15, 03:40:04,VALID,1005.29,VALID,0,VALID,96.3514,VALID,0,VALID,25.0583,VALID,10,VALID,0.248828,
2010-05-15, 03:41:04,VALID,1005.25,VALID,0,VALID,96.8471,VALID,0,VALID,25.0388,VALID,16,VALID,0.55,
2010-05-15, 03:42:04,VALID,1005.24,VALID,0,VALID,96.9386,VALID,0,VALID,25.0193,VALID,66,VALID,0.646484,
2010-05-15, 03:43:04,VALID,1005.25,VALID,0,VALID,97.2894,VALID,0,VALID,24.9803,VALID,58,VALID,0.630078,
2010-05-15, 03:44:04,VALID,1005.25,VALID,0,VALID,97.9223,VALID,0,VALID,24.9589,VALID,58,VALID,0.387891,
2010-05-15, 03:45:04,VALID,1005.26,VALID,0,VALID,97.9833,VALID,0.105969,VALID,24.9218,VALID,61,VALID,0.233594,
2010-05-15, 03:46:04,VALID,1005.27,VALID,0,VALID,98.2426,VALID,0,VALID,24.8615,VALID,106,VALID,0.0542969,
2010-05-15, 03:47:04,VALID,1005.26,VALID,0,VALID,98.6467,VALID,0,VALID,24.8633,VALID,106,VALID,0.508203,
2010-05-15, 03:48:04,VALID,1005.29,VALID,0,VALID,98.5934,VALID,0,VALID,24.8438,VALID,115,VALID,0.608203,
2010-05-15, 03:49:04,VALID,1005.29,VALID,0,VALID,98.418,VALID,0.105969,VALID,24.8225,VALID,113,VALID,0.357422,
2010-05-15, 03:50:04,VALID,1005.3,VALID,0,VALID,98.5781,VALID,0,VALID,24.8438,VALID,113,VALID,0,
2010-05-15, 03:51:04,VALID,1005.3,VALID,0,VALID,98.723,VALID,0,VALID,24.803,VALID,113,VALID,0,
2010-05-15, 03:52:04,VALID,1005.28,VALID,0,VALID,98.6086,VALID,0,VALID,24.8244,VALID,82,VALID,0.278906,
2010-05-15, 03:53:04,VALID,1005.29,VALID,0,VALID,97.7012,VALID,0,VALID,24.8049,VALID,82,VALID,0.196875,